小惑星A/2019 T2

A/2019 T2

English version
Home page
Updated on June 21, 2020

---------------------------------------------------------------------

・ プロフィール

発見日 2019年10月9日
発見光度 20.6等
発見者 Mt. Lemmon Survey

・ 軌道要素

Epoch 2021 Apr. 16.0 TT = JDT 2459320.5
T 2021 Apr. 22.29706 TT                                 Rudenko
q   2.6460990            (2000.0)            P               Q
z  +0.0005423      Peri.  239.38571     +0.33390717     -0.86095167
 +/-0.0000040      Node   155.64283     -0.13766248     +0.35821565
e   0.9985651      Incl.  111.48890     -0.93249935     -0.36117000
H   12.5
From 78 observations 2019 Aug. 26-2020 June 1, mean residual 0".4.

・ 星図

・ 光度変化

        m1 = 9.0 + 5 logΔ + 10.0 log r

---------------------------------------------------------------------

軌道要素はM.P.E.C. 2020-L06に掲載されたものです。
星図はステラナビゲータ Ver.10 (アストロアーツ) で作成したものです。
光度グラフはComet for Windowsで作成したものです。

---------------------------------------------------------------------

Copyright(C) Seiichi Yoshida (comet@aerith.net). All rights reserved.